#timestamp,LO_Frequency,Hit 
1498050015.9,286047141.0,N
1498050035.7,286047135.0,N
1498050055.5,286047146.5,N
1498050075.4,286047158.1,N
1498050095.2,286047197.1,N
1498050115.0,286047222.9,N
1498050115.9,286047222.9,N
1498050135.7,286047198.0,N
1498050155.6,286047165.4,N
1498050175.4,286047133.2,N
1498050195.2,286047117.9,N
1498050215.1,286047134.2,N
1498050216.0,286047134.2,N
1498050235.8,286047141.9,N
1498050255.6,286047147.2,N
1498050275.5,286047152.0,N
1498050295.3,286047124.6,N
1498050315.1,286047143.9,N
1498050335.9,286047149.6,N
1498050355.7,286047165.8,N
1498050375.5,286047185.2,N
1498050395.3,286047184.4,N
1498050415.2,286047214.7,N
1498050435.0,286047251.6,N
1498050435.9,286047251.6,N
1498050455.7,286047227.0,N
1498050475.6,286047207.8,N
1498050495.4,286047195.8,N
1498050515.2,286047165.1,N
1498050535.1,286047141.5,N
1498050536.0,286047141.5,N
1498050555.8,286047115.6,N
1498050575.6,286047123.5,N
1498050595.5,286047110.8,N
1498050615.3,286047097.3,N
1498050635.1,286047094.6,N
1498050655.8,286047089.2,N
1498050675.7,286047082.4,N
1498050695.5,286047076.6,N
1498050715.3,286047064.1,N
1498050735.2,286047054.5,N
1498050755.0,286047043.8,N
1498050755.9,286047043.8,N
1498050775.7,286047050.8,N
1498050795.6,286047033.8,N
1498050815.4,286047035.8,N
1498050835.2,286047023.1,N
1498050855.1,286047020.7,N
1498050856.0,286047020.7,N
1498050875.8,286047013.2,N
1498050895.6,286047053.6,N
1498050915.5,286047111.5,N
1498050935.3,286047116.1,N
1498050955.1,286047148.8,N
1498050975.8,286047154.8,N
1498050995.7,286047144.7,N
1498051015.5,286047120.1,N
1498051035.3,286047112.0,N
1498051055.2,286047101.3,N
1498051075.9,286047100.8,N
1498051095.7,286047082.2,N
1498051115.6,286047064.7,N
1498051135.4,286047056.4,N
1498051155.2,286047039.6,N
1498051175.1,286047018.1,N
1498051176.0,286047018.1,N
1498051195.8,286047009.1,N
1498051215.6,286047000.2,N
1498051235.4,286046983.7,N
1498051255.3,286046980.3,N
1498051275.1,286046977.4,N
1498051295.8,286047032.7,N
1498051315.7,286047112.5,N
1498051335.5,286047174.6,N
1498051355.3,286047197.4,N
1498051375.2,286047207.1,N
1498051395.9,286047205.6,N
1498051415.7,286047198.1,N
1498051435.6,286047180.7,N
1498051455.4,286047184.6,N
1498051475.2,286047199.0,N
1498051495.0,286047184.2,N
1498051495.9,286047184.2,N
1498051515.8,286047207.6,N
1498051535.6,286047188.5,N
1498051555.4,286047166.0,N
1498051575.3,286047164.4,N
1498051595.1,286047162.9,N
1498051596.0,286047162.9,N
1498051615.8,286047165.3,N
1498051635.7,286047133.9,N
1498051655.5,286047121.5,N
1498051675.3,286047145.7,N
1498051695.2,286047185.1,N
1498051715.9,286047164.8,N
1498051735.7,286047142.1,N
1498051755.5,286047137.5,N
1498051775.4,286047134.8,N
1498051795.2,286047109.4,N
1498051815.0,286047093.7,N
1498051815.9,286047093.7,N
1498051835.8,286047077.8,N
1498051855.6,286047055.2,N
1498051875.4,286047036.5,N
1498051895.3,286047043.2,N
1498051915.1,286047078.9,N
1498051916.0,286047078.9,N
1498051935.8,286047121.9,N
1498051955.7,286047169.4,N
1498051975.5,286047230.7,N
1498051995.3,286047228.5,N
1498052015.1,286047202.1,N
1498052035.9,286047195.3,N
1498052055.7,286047202.2,N
1498052075.5,286047162.9,N
1498052095.4,286047162.2,N
1498052115.2,286047170.3,N
1498052135.0,286047167.6,N
1498052135.9,286047167.6,N
1498052155.8,286047165.0,N
1498052175.6,286047143.9,N
1498052195.4,286047119.3,N
1498052215.3,286047098.3,N
1498052235.1,286047077.3,N
1498052236.0,286047077.3,N
1498052255.8,286047088.0,N
1498052275.7,286047112.1,N
1498052295.5,286047113.9,N
1498052315.3,286047098.9,N
1498052335.1,286047136.4,N
1498052355.9,286047199.2,N
1498052375.7,286047227.8,N
1498052395.5,286047234.9,N
1498052415.4,286047211.8,N
1498052435.2,286047215.9,N
1498052455.0,286047183.9,N
1498052455.9,286047183.9,N
1498052475.8,286047164.1,N
1498052495.6,286047167.9,N
1498052515.4,286047206.3,N
1498052535.2,286047186.0,N
1498052555.1,286047175.4,N
1498052556.0,286047175.4,N
1498052575.8,286047170.1,N
1498052595.6,286047153.7,N
1498052615.5,286047144.3,N
1498052635.3,286047131.5,N
1498052655.1,286047142.6,N
1498052675.9,286047150.6,N
1498052695.7,286047130.7,N
1498052715.5,286047134.2,N
1498052735.4,286047155.4,N
1498052755.2,286047206.6,N
1498052775.0,286047236.3,N
1498052775.9,286047236.3,N
1498052795.8,286047233.6,N
1498052815.6,286047270.3,N
1498052835.4,286047301.4,N
1498052855.2,286047332.7,N
1498052875.1,286047306.0,N
1498052876.0,286047306.0,N
1498052895.8,286047327.3,N
1498052915.6,286047372.4,N
1498052935.5,286047402.4,Y
1498052955.3,286047325.6,N
1498052975.1,286047322.4,N
1498052995.9,286047284.7,N
1498053015.7,286047278.7,N
1498053035.5,286047263.3,N
1498053055.4,286047245.9,N
1498053075.2,286047234.1,N
1498053095.0,286047227.9,N
1498053095.9,286047227.9,N
1498053115.8,286047329.0,N
1498053135.6,286047347.7,N
1498053155.4,286047328.9,N
1498053175.2,286047301.5,N
1498053195.1,286047272.2,N
1498053196.0,286047272.2,N
1498053215.8,286047241.6,N
1498053235.6,286047234.7,N
1498053255.5,286047210.2,N
1498053275.3,286047233.9,N
1498053295.1,286047242.5,N
1498053315.9,286047237.6,N
1498053335.7,286047261.0,N
1498053355.5,286047289.2,N
1498053375.4,286047258.4,N
1498053395.2,286047211.5,N
1498053415.0,286047222.2,N
1498053415.9,286047222.2,N
1498053435.8,286047271.8,N
1498053455.6,286047323.4,N
1498053475.4,286047309.3,N
1498053495.2,286047262.5,N
1498053515.1,286047245.7,N
1498053516.0,286047245.7,N
1498053535.8,286047221.4,N
1498053555.6,286047230.4,N
1498053575.5,286047219.2,N
1498053595.3,286047235.3,N
